| time (UTC) | temp F | wind direction | speed MPH | gust MPH | rain 1hr in | rain 24hr in | rain mn in | humidity % | barometer mb |
| 20260901150037 | 58 | 155 | 6.0 | 13.0 | 0.00 | 0.00 | 0.00 | 75 | 1013.9 |
| 20260901144535 | 58 | 159 | 5.0 | 13.0 | 0.00 | 0.00 | 0.00 | 75 | 1013.8 |
| 20260901143030 | 58 | 158 | 4.0 | 12.0 | 0.00 | 0.00 | 0.00 | 75 | 1013.7 |
| 20260901141536 | 58 | 172 | 3.0 | 8.0 | 0.00 | 0.00 | 0.00 | 75 | 1013.6 |
| 20260901140106 | 58 | 173 | 4.0 | 9.0 | 0.00 | 0.00 | 0.00 | 75 | 1013.4 |
| 20260901133034 | 59 | 177 | 5.0 | 13.0 | 0.00 | 0.00 | 0.00 | 73 | 1013.1 |
| 20260901131531 | 60 | 179 | 5.0 | 15.0 | 0.00 | 0.00 | 0.00 | 73 | 1013.0 |
| 20260901130106 | 60 | 188 | 6.0 | 18.0 | 0.00 | 0.00 | 0.00 | 72 | 1012.9 |
| 20260901123035 | 61 | 190 | 5.0 | 17.0 | 0.00 | 0.00 | 0.00 | 72 | 1012.7 |
| 20260901121533 | 61 | 194 | 5.0 | 13.0 | 0.00 | 0.00 | 0.00 | 71 | 1012.7 |
| 20260901120035 | 61 | 189 | 5.0 | 17.0 | 0.00 | 0.00 | 0.00 | 71 | 1012.7 |
| 20260901114536 | 61 | 179 | 6.0 | 14.0 | 0.00 | 0.00 | 0.00 | 71 | 1012.7 |
| 20260901113032 | 62 | 177 | 6.0 | 13.0 | 0.00 | 0.00 | 0.00 | 71 | 1012.6 |
| 20260901111533 | 62 | 170 | 5.0 | 15.0 | 0.00 | 0.00 | 0.00 | 71 | 1012.6 |
| 20260901110036 | 60 | 178 | 5.0 | 14.0 | 0.00 | 0.00 | 0.00 | 75 | 1012.6 |
| 20260901104533 | 58 | 144 | 5.0 | 12.0 | 0.00 | 0.00 | 0.00 | 75 | 1012.6 |
| 20260901103031 | 59 | 140 | 5.0 | 9.0 | 0.00 | 0.00 | 0.00 | 75 | 1012.6 |
| 20260901101604 | 59 | 137 | 4.0 | 10.0 | 0.00 | 0.00 | 0.00 | 76 | 1012.6 |
| 20260901100030 | 58 | 143 | 5.0 | 12.0 | 0.00 | 0.00 | 0.00 | 76 | 1012.6 |
| 20260901094608 | 57 | 138 | 5.0 | 8.0 | 0.00 | 0.00 | 0.00 | 76 | 1012.5 |
| 20260901091531 | 54 | 143 | 5.0 | 9.0 | 0.00 | 0.00 | 0.00 | 78 | 1012.5 |
| 20260901090037 | 52 | 144 | 5.0 | 8.0 | 0.00 | 0.00 | 0.00 | 80 | 1012.3 |
| 20260901083035 | 53 | 58 | 0.0 | 2.0 | 0.00 | 0.00 | 0.00 | 77 | 1012.7 |
| 20260901081536 | 53 | 131 | 3.0 | 6.0 | 0.00 | 0.00 | 0.00 | 79 | 1012.7 |
| 20260901074530 | 52 | 136 | 1.0 | 4.0 | 0.00 | 0.00 | 0.00 | 82 | 1012.4 |
| 20260901073033 | 51 | 156 | 1.0 | 5.0 | 0.00 | 0.00 | 0.00 | 83 | 1012.4 |
| 20260901071642 | 51 | 140 | 3.0 | 5.0 | 0.00 | 0.00 | 0.00 | 84 | 1012.3 |
| 20260901070107 | 51 | 137 | 3.0 | 5.0 | 0.00 | 0.00 | 0.00 | 84 | 1012.4 |
| 20260901064535 | 52 | 132 | 3.0 | 5.0 | 0.00 | 0.00 | 0.00 | 84 | 1012.4 |
| 20260901063035 | 52 | 129 | 3.0 | 5.0 | 0.00 | 0.00 | 0.00 | 84 | 1012.6 |
| 20260901061536 | 52 | 140 | 2.0 | 4.0 | 0.00 | 0.00 | 0.00 | 83 | 1012.7 |
| 20260901060032 | 52 | 131 | 3.0 | 4.0 | 0.00 | 0.00 | 0.00 | 82 | 1012.7 |
| 20260901054531 | 54 | 151 | 2.0 | 4.0 | 0.00 | 0.00 | 0.00 | 81 | 1012.7 |
| 20260901053036 | 54 | 143 | 3.0 | 6.0 | 0.00 | 0.00 | 0.00 | 81 | 1012.6 |
| 20260901051533 | 53 | 124 | 2.0 | 4.0 | 0.00 | 0.00 | 0.00 | 80 | 1012.6 |
| 20260901050033 | 55 | 135 | 0.0 | 2.0 | 0.00 | 0.00 | 0.00 | 76 | 1012.7 |
| 20260901044536 | 57 | 141 | 0.0 | 4.0 | 0.00 | 0.00 | 0.00 | 75 | 1012.6 |
| 20260901043030 | 57 | 163 | 3.0 | 5.0 | 0.00 | 0.00 | 0.00 | 75 | 1012.5 |
| 20260901034608 | 58 | 165 | 3.0 | 5.0 | 0.00 | 0.00 | 0.00 | 73 | 1012.0 |
| 20260901033035 | 60 | 180 | 2.0 | 4.0 | 0.00 | 0.00 | 0.00 | 71 | 1011.9 |
| 20260901031533 | 62 | 180 | 1.0 | 3.0 | 0.00 | 0.00 | 0.00 | 67 | 1011.7 |
| 20260901030034 | 61 | 163 | 3.0 | 5.0 | 0.00 | 0.00 | 0.00 | 71 | 1011.6 |
| 20260901024537 | 61 | 144 | 1.0 | 3.0 | 0.00 | 0.00 | 0.00 | 72 | 1011.5 |
| 20260901023036 | 61 | 189 | 1.0 | 3.0 | 0.00 | 0.00 | 0.00 | 69 | 1011.3 |
| 20260901021534 | 63 | 157 | 1.0 | 5.0 | 0.00 | 0.00 | 0.00 | 66 | 1011.2 |
| 20260901020032 | 66 | 162 | 1.0 | 2.0 | 0.00 | 0.00 | 0.00 | 59 | 1011.2 |
| 20260901014535 | 70 | 270 | 2.0 | 3.0 | 0.00 | 0.00 | 0.00 | 47 | 1011.1 |
| 20260901003034 | 81 | 318 | 5.0 | 10.0 | 0.00 | 0.00 | 0.00 | 29 | 1011.4 |
| 20260901001533 | 81 | 308 | 6.0 | 10.0 | 0.00 | 0.00 | 0.00 | 29 | 1011.4 |
| 20260901000031 | 82 | 316 | 6.0 | 13.0 | 0.00 | 0.00 | 0.00 | 29 | 1011.5 |
| 20260831234536 | 81 | 320 | 6.0 | 12.0 | 0.00 | 0.00 | 0.00 | 29 | 1011.6 |
| 20260831233034 | 80 | 325 | 6.0 | 13.0 | 0.00 | 0.00 | 0.00 | 30 | 1011.8 |
| 20260831231607 | 80 | 326 | 5.0 | 10.0 | 0.00 | 0.00 | 0.00 | 30 | 1012.0 |
| 20260831224606 | 81 | 327 | 5.0 | 10.0 | 0.00 | 0.00 | 0.00 | 31 | 1012.4 |
| 20260831223036 | 81 | 319 | 7.0 | 14.0 | 0.00 | 0.00 | 0.00 | 32 | 1012.5 |
| 20260831221534 | 80 | 323 | 7.0 | 15.0 | 0.00 | 0.00 | 0.00 | 33 | 1012.8 |
| 20260831220031 | 80 | 314 | 7.0 | 14.0 | 0.00 | 0.00 | 0.00 | 35 | 1012.9 |
| 20260831214531 | 79 | 321 | 7.0 | 12.0 | 0.00 | 0.00 | 0.00 | 35 | 1013.1 |
| 20260831213038 | 79 | 323 | 7.0 | 14.0 | 0.00 | 0.00 | 0.00 | 36 | 1013.4 |
| 20260831211607 | 78 | 335 | 7.0 | 15.0 | 0.00 | 0.00 | 0.00 | 36 | 1013.5 |
| 20260831210034 | 77 | 319 | 7.0 | 16.0 | 0.00 | 0.00 | 0.00 | 36 | 1013.7 |
| 20260831203035 | 77 | 329 | 7.0 | 14.0 | 0.00 | 0.00 | 0.00 | 37 | 1014.1 |
| 20260831201533 | 77 | 332 | 8.0 | 16.0 | 0.00 | 0.00 | 0.00 | 38 | 1014.4 |
| 20260831194532 | 75 | 330 | 7.0 | 14.0 | 0.00 | 0.00 | 0.00 | 40 | 1014.9 |
| 20260831193032 | 74 | 324 | 7.0 | 18.0 | 0.00 | 0.00 | 0.00 | 42 | 1015.1 |
| 20260831191536 | 72 | 332 | 8.0 | 17.0 | 0.00 | 0.00 | 0.00 | 44 | 1015.5 |
| 20260831184536 | 70 | 332 | 9.0 | 19.0 | 0.00 | 0.00 | 0.00 | 51 | 1015.9 |
| 20260831183105 | 69 | 336 | 8.0 | 15.0 | 0.00 | 0.00 | 0.00 | 54 | 1016.2 |
| 20260831181536 | 67 | 334 | 8.0 | 15.0 | 0.00 | 0.00 | 0.00 | 57 | 1016.4 |
| 20260831180151 | 66 | 340 | 8.0 | 15.0 | 0.00 | 0.00 | 0.00 | 60 | 1016.7 |
| 20260831174536 | 65 | 348 | 7.0 | 15.0 | 0.00 | 0.00 | 0.00 | 62 | 1016.8 |
| 20260831173109 | 65 | 336 | 8.0 | 14.0 | 0.00 | 0.00 | 0.00 | 65 | 1016.9 |
| 20260831171534 | 63 | 344 | 6.0 | 10.0 | 0.00 | 0.00 | 0.00 | 70 | 1017.0 |
| 20260831164535 | 59 | 83 | 1.0 | 5.0 | 0.00 | 0.00 | 0.00 | 82 | 1017.6 |
| 20260831160033 | 53 | 90 | 2.0 | 3.0 | 0.00 | 0.00 | 0.00 | 94 | 1018.1 |
| 20260831154606 | 51 | 90 | 1.0 | 3.0 | 0.00 | 0.00 | 0.00 | 96 | 1018.1 |
| 20260831153034 | 48 | 114 | 2.0 | 4.0 | 0.00 | 0.00 | 0.00 | 97 | 1018.1 |